#timestamp,LO_Frequency,Hit,StdDev 
1583377935.3,286046998.2,P
1583377955.2,286046998.7,P
1583377975.0,286046998.5,P
1583377975.9,286046998.5,Y
1583377995.8,286047002.8,P
1583378015.6,286047002.0,N
1583378035.4,286047001.6,N
1583378055.3,286047001.9,N
1583378075.1,286047001.4,N
1583378076.0,286047001.4,N
1583378095.8,286047001.5,N
1583378115.7,286047000.1,N
1583378135.5,286047002.1,N
1583378155.4,286047002.2,N
1583378175.2,286047001.8,N
1583378195.0,286047002.7,N
1583378195.9,286047002.7,N
1583378215.8,286047002.8,N
1583378235.6,286047002.4,N
1583378255.4,286046999.9,N
1583378275.3,286047000.6,N
1583378295.1,286047000.6,N
1583378315.9,286047001.0,N
1583378335.7,286046998.7,N
1583378355.5,286046999.0,N
1583378375.4,286046998.8,N
1583378395.2,286046996.6,N
1583378415.0,286046999.1,N
1583378415.9,286046999.1,N
1583378435.8,286046998.2,N
1583378455.6,286046998.6,N
1583378475.5,286046996.7,N
1583378495.3,286046997.0,N
1583378515.1,286046997.0,N
1583378535.9,286046996.7,N
1583378555.7,286046999.6,N
1583378575.5,286046997.1,N
1583378595.4,286046997.1,N
1583378615.2,286046997.3,N
1583378635.1,286046997.1,N
1583378636.0,286046997.1,N
1583378655.8,286046997.0,N
1583378675.6,286046997.4,N
1583378695.5,286046994.9,N
1583378715.3,286046995.2,N
1583378735.1,286046995.4,N
1583378755.9,286046997.8,N
1583378775.7,286046997.2,N
1583378795.6,286046997.5,N
1583378815.4,286046997.3,N
1583378835.2,286046996.9,N
1583378855.1,286046997.2,N
1583378856.0,286046997.2,N
1583378875.8,286046997.6,N
1583378895.7,286046997.6,N
1583378915.5,286046997.5,N
1583378935.3,286046997.9,N
1583378955.2,286046995.0,Y
1583378975.0,286046998.6,P
1583378975.9,286046998.6,N
1583378995.8,286046998.2,P
1583379015.6,286046999.0,N
1583379035.4,286046997.8,Y
1583379055.3,286046998.8,P
1583379075.1,286046998.6,P
1583379095.8,286046998.3,P
1583379115.7,286046998.5,Y
1583379135.5,286047002.4,P
1583379155.4,286047002.5,N
1583379175.2,286047002.0,N
1583379195.0,286046999.8,N
1583379195.9,286046999.8,N
1583379215.8,286047001.9,N
1583379235.6,286047003.9,N
1583379255.4,286047004.2,N
1583379275.3,286047004.0,N
1583379295.1,286047001.8,N
1583379315.9,286047001.7,N
1583379335.7,286047001.3,N
1583379355.5,286047003.1,N
1583379375.4,286047003.7,N
1583379395.2,286047005.4,Y
1583379415.0,286047004.4,P
1583379416.0,286047004.4,P
1583379435.8,286047004.2,P
1583379455.6,286047003.6,Y
1583379475.5,286047001.2,P
1583379495.3,286047000.4,N
1583379515.1,286047000.8,N
1583379535.9,286047001.0,N
1583379555.7,286046998.1,N
1583379575.6,286046998.1,N
1583379595.4,286047000.3,N
1583379615.2,286047002.5,N
1583379635.1,286047002.8,N
1583379636.0,286047002.8,N
1583379655.8,286047002.2,N
1583379675.6,286047000.0,N
1583379695.5,286047002.4,N
1583379715.3,286047002.4,N
1583379735.2,286047002.2,N
1583379755.9,286047004.3,N
1583379775.7,286047003.7,N
1583379795.6,286047003.6,N
1583379815.4,286047003.6,N
1583379835.2,286047006.0,Y
1583379855.1,286047002.1,P
1583379856.0,286047002.1,P
1583379875.8,286047001.9,P
1583379895.7,286047001.4,Y
1583379915.5,286047002.6,P
1583379935.3,286046999.9,N
1583379955.2,286047002.5,N
1583379975.0,286047001.7,N
1583379975.9,286047001.7,N
1583379995.8,286047001.9,N
1583380015.6,286047001.5,N
1583380035.4,286047004.4,Y
1583380055.3,286047000.2,P
1583380075.1,286047001.0,N
1583380095.8,286047002.7,P
1583380115.7,286047002.4,N
1583380135.5,286046999.8,N
1583380155.4,286046999.7,N
1583380175.2,286047002.5,N
1583380195.0,286047001.6,N
1583380195.9,286047001.6,N
1583380215.8,286047004.1,Y
1583380235.6,286047002.2,P
1583380255.5,286047002.8,P
1583380275.3,286047001.3,N
1583380295.1,286047003.4,Y
1583380315.9,286047002.1,P
1583380335.7,286047001.5,P
1583380355.5,286047004.3,P
1583380375.4,286047004.4,Y
1583380395.2,286047001.6,P
1583380415.1,286047001.4,P
1583380416.0,286047001.4,P
1583380435.8,286047002.1,Y
1583380455.6,286047001.1,P
1583380475.5,286047000.3,N
1583380495.3,286047001.0,N
1583380515.2,286047000.7,N
1583380535.9,286047000.3,N
1583380555.7,286047001.0,N
1583380575.6,286046999.8,N
1583380595.4,286047002.8,Y
1583380615.2,286047000.1,P
1583380635.1,286047002.4,P
1583380636